Location: Most
(50.5133°N, 13.6207°E)
Time: 16:43:45
(UTC+02:00)

Tiangong - Pass Details

Date: 04 October 2021
Orbit: 382 x 384 km, 41.5° (Epoch: 20 October)

Event Time Altitude Azimuth Distance (km) Brightness Sun altitude
Exits shadow 06:03:14 11° 217° (SW) 1,339 3.4 -11.5°
Maximum altitude 06:04:26 13° 194° (SSW) 1,238 3.4 -11.3°
Drops below altitude 10° 06:05:57 10° 165° (SSE) 1,394 4.0 -11.1°
Sets 06:08:51 0° 135° (SE) 2,244 5.5 -10.6°
